Date String (YYYY-MM-DD hh:mm:ss) UTC,Instrument flags,Ambient pressure (hPa),Sample flow (lpm),Bypass flow (lpm),Sample temperature (°C),Ambient temperature (°C),ASC tube jacket temperature (°C),LED temperature (°C),Box temperature (°C),Sample RH (%),Span deviation,Mass concentration (μg/m³),Mass concentration (μg/m³),Mass concentration (μg/m³)
DateTimeUTC,F1_M11,P_M11,Q1_M11,Q2_M11,T1_M11,T2_M11,T3_M11,T4_M11,T5_M11,U1_M11,ZSPAN_M11,X2_M11,X0_M11,X1_M11
2023-01-19 11:00:00,,0818.9,5.00,0.00,22.0,21.0,00.0,30.8,23.6,06.5,0000.0,0000.75,0007.78,0000.40
2023-01-19 11:01:00,,0818.9,5.00,0.00,22.0,20.7,00.0,30.8,23.5,06.5,0000.0,0000.66,0005.50,0000.39
2023-01-19 11:02:00,,0819.0,5.00,0.00,21.9,20.4,00.0,30.8,23.4,06.2,0000.0,0000.62,0005.19,0000.37
2023-01-19 11:03:00,,0818.9,5.01,0.00,21.8,20.1,00.0,30.7,23.3,06.1,0000.0,0000.56,0006.06,0000.37
2023-01-19 11:04:00,,0819.0,5.01,0.00,21.8,19.9,00.0,30.7,23.2,06.1,0000.0,0000.54,0004.67,0000.36
2023-01-19 11:05:00,,0819.0,4.99,0.00,21.7,19.8,00.0,30.7,23.1,06.4,0000.0,0000.54,0004.52,0000.34
2023-01-19 11:06:00,,0818.9,5.01,0.00,21.7,20.0,00.0,30.7,23.1,06.4,0000.0,0000.55,0003.78,0000.34
2023-01-19 11:07:00,,0818.9,5.01,0.00,21.7,21.1,00.0,30.6,23.4,06.4,0000.0,0000.53,0003.69,0000.34
2023-01-19 11:08:00,,0818.9,5.00,0.00,21.9,22.1,00.0,30.6,23.7,06.6,0000.0,0000.51,0003.60,0000.33
2023-01-19 11:09:00,,0818.9,5.00,0.00,22.0,22.8,00.0,30.6,24.0,06.5,0000.0,0000.53,0004.60,0000.33
2023-01-19 11:10:00,,0818.9,4.98,0.00,22.1,22.4,00.0,30.7,23.9,06.4,0000.0,0000.55,0005.01,0000.33
2023-01-19 11:11:00,,0818.9,5.00,0.00,22.0,21.6,00.0,30.7,23.8,06.4,0000.0,0000.55,0004.59,0000.33
2023-01-19 11:12:00,,0819.0,5.01,0.00,22.0,21.0,00.0,30.7,23.6,06.2,0000.0,0000.56,0003.95,0000.33
2023-01-19 11:13:00,,0819.0,4.99,0.00,21.9,20.7,00.0,30.8,23.4,06.4,0000.0,0000.56,0003.62,0000.33
2023-01-19 11:14:00,,0818.9,5.02,0.00,21.9,20.4,00.0,30.7,23.4,06.5,0000.0,0000.56,0002.27,0000.33
2023-01-19 11:15:00,,0818.9,5.00,0.00,21.8,20.3,00.0,30.8,23.3,06.9,0000.0,0000.58,0002.44,0000.33
2023-01-19 11:16:00,,0818.9,5.00,0.00,21.8,20.1,00.0,30.7,23.2,06.7,0000.0,0000.56,0002.41,0000.34
2023-01-19 11:17:00,,0818.9,4.99,0.00,21.7,20.0,00.0,30.7,23.1,06.8,0000.0,0000.59,0002.46,0000.34
2023-01-19 11:18:00,,0818.9,5.03,0.00,21.8,20.9,00.0,30.7,23.4,06.7,0000.0,0000.59,0002.49,0000.34
2023-01-19 11:19:00,,0818.9,5.00,0.00,21.9,22.0,00.0,30.7,23.7,07.2,0000.0,0000.63,0002.58,0000.35
2023-01-19 11:20:00,,0819.0,5.00,0.00,22.0,22.9,00.0,30.7,24.0,07.6,0000.0,0000.63,0002.16,0000.36
2023-01-19 11:21:00,,0819.0,4.99,0.00,22.1,22.5,00.0,30.7,24.0,07.4,0000.0,0000.65,0003.41,0000.38
2023-01-19 11:22:00,,0819.0,5.00,0.00,22.1,21.7,00.0,30.8,23.8,06.8,0000.0,0000.68,0003.48,0000.40
2023-01-19 11:23:00,,0819.1,5.00,0.00,22.0,21.0,00.0,30.8,23.6,06.2,0000.0,0000.69,0003.56,0000.40
2023-01-19 11:24:00,,0819.2,4.99,0.00,21.9,20.6,00.0,30.8,23.5,06.4,0000.0,0000.69,0003.58,0000.41
2023-01-19 11:25:00,,0819.2,5.00,0.00,21.9,20.3,00.0,30.8,23.4,06.7,0000.0,0000.69,0003.61,0000.41
2023-01-19 11:26:00,,0819.2,5.00,0.00,21.8,20.1,00.0,30.7,23.3,06.8,0000.0,0000.68,0003.51,0000.41
2023-01-19 11:27:00,,0819.2,4.98,0.00,21.8,20.0,00.0,30.7,23.2,06.5,0000.0,0000.68,0003.45,0000.41
2023-01-19 11:28:00,,0819.3,5.00,0.00,21.7,20.3,00.0,30.7,23.2,06.0,0000.0,0000.64,0003.51,0000.41
2023-01-19 11:29:00,,0819.3,5.00,0.00,21.8,21.5,00.0,30.7,23.5,06.2,0000.0,0000.66,0005.34,0000.41
2023-01-19 11:30:00,,0819.3,5.00,0.00,22.0,22.5,00.0,30.7,23.8,06.5,0000.0,0000.68,0005.42,0000.40
2023-01-19 11:31:00,,0819.2,4.99,0.00,22.0,22.5,00.0,30.7,23.9,06.8,0000.0,0000.66,0005.38,0000.39
2023-01-19 11:32:00,,0819.3,4.99,0.00,22.0,21.9,00.0,30.8,23.9,06.5,0000.0,0000.65,0003.37,0000.38
2023-01-19 11:33:00,,0819.3,4.99,0.00,22.0,21.4,00.0,30.8,23.7,06.7,0000.0,0000.60,0003.99,0000.36
2023-01-19 11:34:00,,0819.2,5.00,0.00,22.0,21.1,00.0,30.8,23.6,06.6,0000.0,0000.61,0003.96,0000.36
2023-01-19 11:35:00,,0819.3,5.00,0.00,21.9,20.8,00.0,30.8,23.5,06.7,0000.0,0000.63,0003.97,0000.36
2023-01-19 11:36:00,,0819.3,5.00,0.00,21.9,20.5,00.0,30.8,23.4,06.5,0000.0,0000.68,0004.07,0000.36
2023-01-19 11:37:00,,0819.3,5.01,0.00,21.9,20.4,00.0,30.8,23.3,06.4,0000.0,0000.68,0004.05,0000.37
2023-01-19 11:38:00,,0819.2,5.01,0.00,21.8,20.2,00.0,30.8,23.2,06.4,0000.0,0000.70,0004.13,0000.37
2023-01-19 11:39:00,,0819.2,5.01,0.00,21.8,20.8,00.0,30.7,23.4,06.4,0000.0,0000.68,0003.95,0000.37
2023-01-19 11:40:00,,0819.3,4.99,0.00,21.9,21.9,00.0,30.7,23.7,06.5,0000.0,0000.67,0002.33,0000.37
2023-01-19 11:41:00,,0819.2,5.01,0.00,22.1,22.8,00.0,30.7,24.0,06.5,0000.0,0000.63,0002.15,0000.37
2023-01-19 11:42:00,,0819.2,5.00,0.00,22.2,23.0,00.0,30.8,24.2,06.7,0000.0,0000.62,0002.13,0000.38
2023-01-19 11:43:00,,0819.2,4.99,0.00,22.2,22.2,00.0,30.8,24.0,06.6,0000.0,0000.61,0002.04,0000.38
2023-01-19 11:44:00,,0819.3,5.02,0.00,22.1,21.5,00.0,30.8,23.8,06.6,0000.0,0000.68,0001.43,0000.39
2023-01-19 11:45:00,,0819.3,5.00,0.00,22.1,21.1,00.0,30.8,23.6,06.9,0000.0,0000.70,0001.51,0000.38
2023-01-19 11:46:00,,0819.3,5.01,0.00,22.0,20.8,00.0,30.8,23.5,06.7,0000.0,0000.69,0001.47,0000.39
2023-01-19 11:47:00,,0819.3,4.99,0.00,22.0,20.4,00.0,30.8,23.4,06.5,0000.0,0000.66,0001.52,0000.39
2023-01-19 11:48:00,,0819.3,5.02,0.00,21.9,20.2,00.0,30.8,23.3,06.4,0000.0,0000.65,0001.50,0000.39
2023-01-19 11:49:00,,0819.1,5.00,0.00,21.8,20.0,00.0,30.8,23.2,06.5,0000.0,0000.63,0001.40,0000.38
2023-01-19 11:50:00,,0819.2,5.00,0.00,21.8,20.3,00.0,30.8,23.3,06.9,0000.0,0000.63,0001.45,0000.39
2023-01-19 11:51:00,,0819.2,4.99,0.00,21.9,21.4,00.0,30.7,23.6,07.1,0000.0,0000.65,0001.30,0000.39
2023-01-19 11:52:00,,0819.2,5.00,0.00,22.0,22.4,00.0,30.7,23.9,06.6,0000.0,0000.66,0001.34,0000.39
2023-01-19 11:53:00,,0819.2,5.00,0.00,22.1,22.8,00.0,30.8,24.1,06.5,0000.0,0000.66,0001.35,0000.40
2023-01-19 11:54:00,,0819.3,5.01,0.00,22.1,22.1,00.0,30.8,24.0,06.3,0000.0,0000.65,0001.95,0000.39
2023-01-19 11:55:00,,0819.3,5.01,0.00,22.1,21.4,00.0,30.8,23.8,06.6,0000.0,0000.60,0002.65,0000.39
2023-01-19 11:56:00,,0819.3,4.99,0.00,22.0,20.9,00.0,30.9,23.6,06.5,0000.0,0000.57,0002.66,0000.39
2023-01-19 11:57:00,,0819.3,4.98,0.00,22.0,20.6,00.0,30.9,23.5,06.5,0000.0,0000.55,0003.20,0000.38
2023-01-19 11:58:00,,0819.3,4.99,0.00,21.9,20.4,00.0,30.8,23.4,06.5,0000.0,0000.53,0003.07,0000.37
2023-01-19 11:59:00,,0819.3,5.01,0.00,21.9,20.2,00.0,30.8,23.3,06.5,0000.0,0000.52,0003.05,0000.37
